| time (UTC) | temp F | wind direction | speed knots | gust knots | rain 1hr in | rain 24hr in | rain mn in | humidity % | barometer mb |
| 20260503231549 | 66 | 0 | 0.0 | 2.6 | 0.00 | 0.00 | 0.00 | 47 | 1015.7 |
| 20260503231032 | 66 | 0 | 0.0 | 0.9 | 0.00 | 0.00 | 0.00 | 48 | 1015.8 |
| 20260503230535 | 66 | 0 | 0.0 | 0.0 | 0.00 | 0.00 | 0.00 | 46 | 1015.7 |
| 20260503230053 | 66 | 0 | 0.0 | 0.0 | 0.00 | 0.00 | 0.00 | 47 | 1015.8 |
| 20260503225532 | 67 | 0 | 0.0 | 0.0 | 0.00 | 0.00 | 0.00 | 48 | 1015.8 |
| 20260503225032 | 67 | 0 | 0.0 | 0.9 | 0.00 | 0.00 | 0.00 | 46 | 1015.8 |
| 20260503224545 | 67 | 0 | 0.0 | 0.9 | 0.00 | 0.00 | 0.00 | 44 | 1015.8 |
| 20260503224032 | 67 | 0 | 0.0 | 2.6 | 0.00 | 0.00 | 0.00 | 44 | 1015.8 |
| 20260503223532 | 68 | 0 | 0.0 | 2.6 | 0.00 | 0.00 | 0.00 | 45 | 1015.9 |
| 20260503223045 | 68 | 0 | 0.0 | 2.6 | 0.00 | 0.00 | 0.00 | 44 | 1015.8 |
| 20260503222529 | 68 | 0 | 0.0 | 1.7 | 0.00 | 0.00 | 0.00 | 44 | 1015.8 |
| 20260503222031 | 68 | 0 | 0.0 | 4.3 | 0.00 | 0.00 | 0.00 | 43 | 1015.8 |
| 20260503221550 | 68 | 0 | 0.0 | 4.3 | 0.00 | 0.00 | 0.00 | 44 | 1015.8 |
| 20260503221030 | 69 | 0 | 0.0 | 0.9 | 0.00 | 0.00 | 0.00 | 44 | 1015.8 |
| 20260503220530 | 69 | 0 | 0.0 | 1.7 | 0.00 | 0.00 | 0.00 | 45 | 1015.7 |
| 20260503220052 | 69 | 0 | 0.0 | 1.7 | 0.00 | 0.00 | 0.00 | 45 | 1015.7 |
| 20260503215531 | 69 | 0 | 0.0 | 0.9 | 0.00 | 0.00 | 0.00 | 43 | 1015.9 |
| 20260503215031 | 69 | 0 | 0.0 | 0.9 | 0.00 | 0.00 | 0.00 | 46 | 1015.9 |
| 20260503214545 | 69 | 0 | 0.0 | 4.3 | 0.00 | 0.00 | 0.00 | 43 | 1016.0 |
| 20260503214034 | 69 | 0 | 0.0 | 4.3 | 0.00 | 0.00 | 0.00 | 41 | 1016.0 |
| 20260503213530 | 69 | 240 | 0.0 | 1.7 | 0.00 | 0.00 | 0.00 | 42 | 1016.1 |
| 20260503213048 | 70 | 0 | 0.0 | 0.9 | 0.00 | 0.00 | 0.00 | 41 | 1016.0 |
| 20260503212531 | 71 | 0 | 0.0 | 4.3 | 0.00 | 0.00 | 0.00 | 40 | 1016.0 |
| 20260503212031 | 71 | 0 | 0.0 | 4.3 | 0.00 | 0.00 | 0.00 | 40 | 1016.1 |
| 20260503211548 | 71 | 0 | 0.0 | 0.9 | 0.00 | 0.00 | 0.00 | 41 | 1016.2 |
| 20260503211031 | 71 | 0 | 0.0 | 0.9 | 0.00 | 0.00 | 0.00 | 41 | 1016.2 |
| 20260503210531 | 71 | 0 | 0.0 | 0.9 | 0.00 | 0.00 | 0.00 | 39 | 1016.2 |
| 20260503210053 | 71 | 0 | 0.0 | 0.9 | 0.00 | 0.00 | 0.00 | 41 | 1016.2 |
| 20260503205533 | 71 | 0 | 0.0 | 5.2 | 0.00 | 0.00 | 0.00 | 40 | 1016.3 |
| 20260503205033 | 71 | 0 | 0.0 | 5.2 | 0.00 | 0.00 | 0.00 | 41 | 1016.3 |
| 20260503204557 | 70 | 0 | 0.0 | 2.6 | 0.00 | 0.00 | 0.00 | 40 | 1016.2 |
| 20260503204030 | 70 | 0 | 0.0 | 3.5 | 0.00 | 0.00 | 0.00 | 42 | 1016.5 |
| 20260503203529 | 70 | 0 | 0.0 | 3.5 | 0.00 | 0.00 | 0.00 | 39 | 1016.6 |
| 20260503203041 | 70 | 0 | 0.0 | 4.3 | 0.00 | 0.00 | 0.00 | 40 | 1016.6 |
| 20260503202534 | 70 | 0 | 0.0 | 4.3 | 0.00 | 0.00 | 0.00 | 40 | 1016.7 |
| 20260503202031 | 70 | 0 | 0.0 | 0.9 | 0.00 | 0.00 | 0.00 | 43 | 1016.8 |
| 20260503201542 | 69 | 0 | 0.0 | 1.7 | 0.00 | 0.00 | 0.00 | 41 | 1016.9 |
| 20260503201031 | 69 | 0 | 0.0 | 1.7 | 0.00 | 0.00 | 0.00 | 44 | 1016.9 |
| 20260503200531 | 68 | 0 | 0.0 | 7.0 | 0.00 | 0.00 | 0.00 | 44 | 1017.0 |
| 20260503200046 | 68 | 0 | 0.0 | 7.0 | 0.00 | 0.00 | 0.00 | 43 | 1017.1 |
| 20260503195528 | 69 | 298 | 0.0 | 1.7 | 0.00 | 0.00 | 0.00 | 43 | 1017.1 |
| 20260503195032 | 68 | 0 | 0.0 | 0.0 | 0.00 | 0.00 | 0.00 | 46 | 1017.3 |
| 20260503194543 | 68 | 0 | 0.0 | 0.0 | 0.00 | 0.00 | 0.00 | 46 | 1017.4 |
| 20260503194031 | 68 | 0 | 0.0 | 0.9 | 0.00 | 0.00 | 0.00 | 44 | 1017.5 |
| 20260503193531 | 68 | 0 | 0.0 | 0.9 | 0.00 | 0.00 | 0.00 | 44 | 1017.6 |
| 20260503193044 | 68 | 0 | 0.0 | 0.9 | 0.00 | 0.00 | 0.00 | 45 | 1017.6 |
| 20260503192528 | 69 | 0 | 0.0 | 0.9 | 0.00 | 0.00 | 0.00 | 42 | 1017.6 |
| 20260503192202 | 69 | 0 | 0.0 | 6.1 | 0.00 | 0.00 | 0.00 | 43 | 1017.8 |
| 20260503191544 | 70 | 0 | 0.0 | 6.1 | 0.00 | 0.00 | 0.00 | 41 | 1017.9 |
| 20260503191032 | 70 | 0 | 0.0 | 6.1 | 0.00 | 0.00 | 0.00 | 41 | 1018.0 |
| 20260503190531 | 69 | 0 | 0.0 | 3.5 | 0.00 | 0.00 | 0.00 | 44 | 1018.1 |
| 20260503190046 | 69 | 0 | 0.0 | 3.5 | 0.00 | 0.00 | 0.00 | 43 | 1018.1 |
| 20260503185531 | 69 | 0 | 0.0 | 3.5 | 0.00 | 0.00 | 0.00 | 42 | 1018.2 |
| 20260503185032 | 68 | 0 | 0.0 | 1.7 | 0.00 | 0.00 | 0.00 | 43 | 1018.2 |
| 20260503184541 | 68 | 0 | 0.0 | 1.7 | 0.00 | 0.00 | 0.00 | 44 | 1018.3 |
| 20260503184032 | 68 | 90 | 0.0 | 2.6 | 0.00 | 0.00 | 0.00 | 43 | 1018.3 |
| 20260503183532 | 67 | 0 | 0.0 | 2.6 | 0.00 | 0.00 | 0.00 | 45 | 1018.5 |
| 20260503183052 | 67 | 0 | 0.0 | 2.6 | 0.00 | 0.00 | 0.00 | 45 | 1018.4 |
| 20260503182532 | 66 | 0 | 0.0 | 3.5 | 0.00 | 0.00 | 0.00 | 44 | 1018.5 |
| 20260503182036 | 66 | 0 | 0.0 | 3.5 | 0.00 | 0.00 | 0.00 | 44 | 1018.7 |
| 20260503181546 | 66 | 0 | 0.0 | 4.3 | 0.00 | 0.00 | 0.00 | 43 | 1018.6 |
| 20260503181032 | 66 | 0 | 0.0 | 4.3 | 0.00 | 0.00 | 0.00 | 43 | 1018.6 |
| 20260503180532 | 66 | 0 | 0.0 | 4.3 | 0.00 | 0.00 | 0.00 | 43 | 1018.8 |
| 20260503180056 | 66 | 0 | 0.0 | 0.9 | 0.00 | 0.00 | 0.00 | 44 | 1018.7 |
| 20260503175532 | 65 | 0 | 0.0 | 2.6 | 0.00 | 0.00 | 0.00 | 47 | 1018.8 |
| 20260503175032 | 66 | 0 | 0.0 | 2.6 | 0.00 | 0.00 | 0.00 | 43 | 1018.9 |
| 20260503174542 | 66 | 0 | 0.0 | 1.7 | 0.00 | 0.00 | 0.00 | 47 | 1019.0 |
| 20260503174036 | 65 | 0 | 0.0 | 6.1 | 0.00 | 0.00 | 0.00 | 47 | 1018.9 |
| 20260503173533 | 64 | 46 | 0.0 | 6.1 | 0.00 | 0.00 | 0.00 | 46 | 1019.1 |
| 20260503173136 | 64 | 0 | 0.0 | 3.5 | 0.00 | 0.00 | 0.00 | 47 | 1019.1 |
| 20260503172536 | 64 | 0 | 0.0 | 3.5 | 0.00 | 0.00 | 0.00 | 45 | 1019.3 |
| 20260503172031 | 64 | 0 | 0.0 | 3.5 | 0.00 | 0.00 | 0.00 | 46 | 1019.3 |
| 20260503171548 | 64 | 0 | 0.0 | 3.5 | 0.00 | 0.00 | 0.00 | 45 | 1019.4 |
| 20260503171029 | 63 | 0 | 0.0 | 3.5 | 0.00 | 0.00 | 0.00 | 47 | 1019.5 |
| 20260503170532 | 62 | 0 | 0.0 | 6.1 | 0.00 | 0.00 | 0.00 | 45 | 1019.6 |
| 20260503072531 | 43 | 186 | 0.0 | 1.7 | 0.00 | 0.00 | 0.00 | 80 | 1017.5 |
| 20260503072032 | 43 | 186 | 0.9 | 2.6 | 0.00 | 0.00 | 0.00 | 80 | 1017.4 |
| 20260503071543 | 43 | 186 | 0.9 | 2.6 | 0.00 | 0.00 | 0.00 | 81 | 1017.2 |
| 20260503071030 | 43 | 186 | 0.9 | 2.6 | 0.00 | 0.00 | 0.00 | 80 | 1017.1 |
| 20260503070534 | 43 | 187 | 0.9 | 2.6 | 0.00 | 0.00 | 0.00 | 80 | 1017.2 |
| 20260503055032 | 44 | 0 | 0.0 | 1.7 | 0.00 | 0.00 | 0.00 | 77 | 1017.3 |
| 20260503054541 | 45 | 187 | 0.0 | 1.7 | 0.00 | 0.00 | 0.00 | 77 | 1017.3 |
| 20260503054032 | 45 | 0 | 0.0 | 0.9 | 0.00 | 0.00 | 0.00 | 76 | 1017.2 |
| 20260503053535 | 45 | 0 | 0.0 | 0.9 | 0.00 | 0.00 | 0.00 | 76 | 1017.2 |
| 20260503053041 | 45 | 0 | 0.0 | 1.7 | 0.00 | 0.00 | 0.00 | 75 | 1017.3 |
| 20260503052534 | 45 | 0 | 0.0 | 1.7 | 0.00 | 0.00 | 0.00 | 75 | 1017.3 |
| 20260503052031 | 45 | 187 | 0.0 | 1.7 | 0.00 | 0.00 | 0.00 | 75 | 1017.3 |
| 20260503051544 | 46 | 0 | 0.0 | 0.9 | 0.00 | 0.00 | 0.00 | 74 | 1017.3 |
| 20260503051032 | 46 | 187 | 0.0 | 0.9 | 0.00 | 0.00 | 0.00 | 74 | 1017.3 |
| 20260503050533 | 46 | 0 | 0.0 | 0.9 | 0.00 | 0.00 | 0.00 | 74 | 1017.3 |
| 20260503050045 | 46 | 0 | 0.0 | 0.0 | 0.00 | 0.00 | 0.00 | 73 | 1017.3 |
| 20260503045529 | 46 | 0 | 0.0 | 0.9 | 0.00 | 0.00 | 0.00 | 73 | 1017.3 |
| 20260503045032 | 46 | 0 | 0.0 | 0.9 | 0.00 | 0.00 | 0.00 | 72 | 1017.1 |
| 20260503044543 | 46 | 0 | 0.0 | 0.9 | 0.00 | 0.00 | 0.00 | 72 | 1017.2 |
| 20260503044034 | 46 | 187 | 0.0 | 1.7 | 0.00 | 0.00 | 0.00 | 72 | 1017.2 |
| 20260503043533 | 47 | 187 | 0.0 | 1.7 | 0.00 | 0.00 | 0.00 | 70 | 1017.1 |
| 20260503043042 | 47 | 187 | 0.0 | 0.9 | 0.00 | 0.00 | 0.00 | 70 | 1017.1 |
| 20260503042532 | 47 | 0 | 0.0 | 0.9 | 0.00 | 0.00 | 0.00 | 70 | 1017.1 |
| 20260503042033 | 47 | 187 | 0.0 | 0.9 | 0.00 | 0.00 | 0.00 | 69 | 1017.1 |
| 20260503041543 | 48 | 0 | 0.0 | 0.9 | 0.00 | 0.00 | 0.00 | 68 | 1016.8 |
| 20260503041035 | 48 | 0 | 0.0 | 0.9 | 0.00 | 0.00 | 0.00 | 67 | 1016.9 |
| 20260503040534 | 48 | 0 | 0.0 | 0.9 | 0.00 | 0.00 | 0.00 | 66 | 1016.8 |
| 20260503040048 | 49 | 0 | 0.0 | 0.9 | 0.00 | 0.00 | 0.00 | 66 | 1016.8 |
| 20260503035533 | 49 | 0 | 0.0 | 1.7 | 0.00 | 0.00 | 0.00 | 65 | 1016.7 |
| 20260503035036 | 49 | 0 | 0.0 | 1.7 | 0.00 | 0.00 | 0.00 | 64 | 1016.6 |
| 20260503034545 | 49 | 0 | 0.0 | 1.7 | 0.00 | 0.00 | 0.00 | 62 | 1016.5 |
| 20260503034029 | 50 | 187 | 0.0 | 0.9 | 0.00 | 0.00 | 0.00 | 61 | 1016.5 |
| 20260503033531 | 50 | 0 | 0.0 | 0.9 | 0.00 | 0.00 | 0.00 | 60 | 1016.4 |
| 20260503033042 | 51 | 0 | 0.0 | 0.9 | 0.00 | 0.00 | 0.00 | 58 | 1016.3 |
| 20260503032531 | 52 | 0 | 0.0 | 0.9 | 0.00 | 0.00 | 0.00 | 58 | 1016.2 |
| 20260503032030 | 52 | 0 | 0.0 | 1.7 | 0.00 | 0.00 | 0.00 | 57 | 1016.1 |
| 20260503031550 | 53 | 0 | 0.0 | 1.7 | 0.00 | 0.00 | 0.00 | 55 | 1016.2 |
| 20260503031031 | 53 | 0 | 0.0 | 1.7 | 0.00 | 0.00 | 0.00 | 55 | 1016.1 |
| 20260503030531 | 53 | 0 | 0.0 | 1.7 | 0.00 | 0.00 | 0.00 | 53 | 1016.0 |
| 20260503030041 | 54 | 0 | 0.9 | 2.6 | 0.00 | 0.00 | 0.00 | 52 | 1016.0 |
| 20260503025533 | 54 | 0 | 0.9 | 3.5 | 0.00 | 0.00 | 0.00 | 54 | 1015.9 |
| 20260503025031 | 54 | 0 | 1.7 | 3.5 | 0.00 | 0.00 | 0.00 | 51 | 1015.6 |
| 20260503024548 | 54 | 187 | 0.9 | 2.6 | 0.00 | 0.00 | 0.00 | 52 | 1015.6 |
| 20260503024031 | 54 | 153 | 0.9 | 2.6 | 0.00 | 0.00 | 0.00 | 51 | 1015.5 |
| 20260503023531 | 55 | 0 | 0.9 | 1.7 | 0.00 | 0.00 | 0.00 | 51 | 1015.5 |
| 20260503023045 | 55 | 0 | 0.0 | 1.7 | 0.00 | 0.00 | 0.00 | 49 | 1015.4 |
| 20260503022530 | 55 | 0 | 0.0 | 4.3 | 0.00 | 0.00 | 0.00 | 49 | 1015.5 |
| 20260503022031 | 56 | 51 | 0.0 | 6.1 | 0.00 | 0.00 | 0.00 | 48 | 1015.5 |
| 20260503021547 | 56 | 84 | 1.7 | 6.1 | 0.00 | 0.00 | 0.00 | 48 | 1015.4 |
| 20260503021031 | 56 | 264 | 1.7 | 5.2 | 0.00 | 0.00 | 0.00 | 47 | 1015.2 |
| 20260503020531 | 56 | 170 | 0.9 | 3.5 | 0.00 | 0.00 | 0.00 | 47 | 1015.3 |
| 20260503020051 | 56 | 171 | 0.9 | 3.5 | 0.00 | 0.00 | 0.00 | 47 | 1015.3 |
| 20260503015532 | 56 | 171 | 0.9 | 6.1 | 0.00 | 0.00 | 0.00 | 46 | 1015.2 |
| 20260503015032 | 57 | 188 | 1.7 | 6.1 | 0.00 | 0.00 | 0.00 | 47 | 1015.0 |
| 20260503014544 | 57 | 170 | 1.7 | 7.0 | 0.00 | 0.00 | 0.00 | 46 | 1015.0 |
| 20260503014030 | 57 | 134 | 0.9 | 7.0 | 0.00 | 0.00 | 0.00 | 45 | 1014.9 |
| 20260503013532 | 57 | 242 | 0.9 | 6.1 | 0.00 | 0.00 | 0.00 | 45 | 1014.8 |
| 20260503013043 | 57 | 218 | 0.9 | 6.1 | 0.00 | 0.00 | 0.00 | 44 | 1014.8 |
| 20260503012530 | 57 | 52 | 1.7 | 6.1 | 0.00 | 0.00 | 0.00 | 44 | 1014.7 |
| 20260503012033 | 57 | 300 | 1.7 | 6.1 | 0.00 | 0.00 | 0.00 | 44 | 1014.8 |
| 20260503011557 | 57 | 87 | 0.9 | 5.2 | 0.00 | 0.00 | 0.00 | 45 | 1014.5 |
| 20260503011032 | 57 | 56 | 0.9 | 6.1 | 0.00 | 0.00 | 0.00 | 44 | 1014.4 |
| 20260503010530 | 58 | 271 | 1.7 | 6.1 | 0.00 | 0.00 | 0.00 | 43 | 1014.5 |
| 20260503010051 | 58 | 117 | 0.9 | 4.3 | 0.00 | 0.00 | 0.00 | 43 | 1014.4 |
| 20260503005532 | 58 | 202 | 0.9 | 6.1 | 0.00 | 0.00 | 0.00 | 44 | 1014.3 |
| 20260503005034 | 58 | 82 | 1.7 | 9.6 | 0.00 | 0.00 | 0.00 | 42 | 1014.3 |
| 20260503004609 | 58 | 250 | 2.6 | 9.6 | 0.00 | 0.00 | 0.00 | 43 | 1014.2 |
| 20260503004031 | 58 | 63 | 2.6 | 9.6 | 0.00 | 0.00 | 0.00 | 41 | 1014.1 |
| 20260503003530 | 58 | 0 | 1.7 | 8.7 | 0.00 | 0.00 | 0.00 | 42 | 1014.1 |
| 20260503003048 | 59 | 0 | 1.7 | 7.0 | 0.00 | 0.00 | 0.00 | 42 | 1014.0 |
| 20260503002534 | 59 | 184 | 0.9 | 7.8 | 0.00 | 0.00 | 0.00 | 41 | 1013.9 |
| 20260503002033 | 59 | 242 | 1.7 | 7.8 | 0.00 | 0.00 | 0.00 | 41 | 1013.8 |
| 20260503001549 | 59 | 194 | 2.6 | 7.8 | 0.00 | 0.00 | 0.00 | 42 | 1013.7 |
| 20260503001030 | 59 | 233 | 2.6 | 7.0 | 0.00 | 0.00 | 0.00 | 42 | 1013.5 |
| 20260503000533 | 59 | 171 | 0.0 | 7.0 | 0.00 | 0.00 | 0.00 | 43 | 1013.5 |
| 20260503000058 | 59 | 192 | 0.9 | 7.8 | 0.00 | 0.00 | 0.00 | 42 | 1013.3 |
| 20260502235529 | 59 | 269 | 1.7 | 7.8 | 0.00 | 0.00 | 0.00 | 42 | 1013.4 |
| 20260502235029 | 59 | 76 | 1.7 | 7.0 | 0.00 | 0.00 | 0.00 | 41 | 1013.2 |
| 20260502234547 | 59 | 35 | 1.7 | 7.0 | 0.00 | 0.00 | 0.00 | 41 | 1013.1 |
| 20260502234032 | 60 | 60 | 0.9 | 5.2 | 0.00 | 0.00 | 0.00 | 40 | 1012.9 |
| 20260502233534 | 60 | 136 | 0.9 | 8.7 | 0.00 | 0.00 | 0.00 | 40 | 1013.0 |
| 20260502233045 | 60 | 127 | 0.9 | 8.7 | 0.00 | 0.00 | 0.00 | 40 | 1013.0 |
| 20260502232536 | 61 | 0 | 1.7 | 8.7 | 0.00 | 0.00 | 0.00 | 39 | 1012.9 |
| 20260502232030 | 61 | 36 | 2.6 | 7.0 | 0.00 | 0.00 | 0.00 | 38 | 1012.8 |